AirNav   Air Wisconsin pilot careers
 
 946 users online  

L36 Rio Linda Airport
Rio Linda, California, USA

GOING TO RIO LINDA?


FAA INFORMATION EFFECTIVE 29 MARCH 2018

Location

FAA Identifier: L36
Lat/Long: 38-40-30.0000N / 121-26-43.6000W
38-40.500000N / 121-26.726667W
38.6750000 / -121.4454444
(estimated)
Elevation: 46 ft. / 14 m (estimated)
Variation: 16E (1985)
From city: 1 mile S of RIO LINDA, CA
Time zone: UTC -7 (UTC -8 during Standard Time)
Zip code: 95673

Airport Operations

Airport use: Open to the public
Activation date: 11/1963
Control tower: no
ARTCC: OAKLAND CENTER
FSS: RANCHO MURIETA FLIGHT SERVICE STATION
NOTAMs facility: RIU (NOTAM-D service available)
Attendance: 0800-1700
Pattern altitude: 846 ft. MSL
Wind indicator: lighted
Segmented circle: yes
Lights: ACTVT LIRL RY 17/35 KEY 122.9 SEVEN TIMES.
Beacon: white-green (lighted land airport)
DUSK-2400

Airport Communications

CTAF/UNICOM: 123.0
WX AWOS-3 at MCC (2.1 nm E): 125.975 (916-641-1272)
WX ASOS at SMF (7 nm W): PHONE 916-649-3996
WX AWOS-3 at MHR (10 nm SE): PHONE 916-366-3371
WX ASOS at SAC (10 nm S): PHONE 916-421-0923
WX AWOS-3 at LHM (15 nm N): 124.25 (916-645-0698)
WX AWOS-3 at EDU (18 nm SW): 119.025 (530-754-6839)

Nearby radio navigation aids

VOR radial/distance  VOR name  Freq  Var
MCCr266/2.0MC CLELLAN VOR/DME109.2017E
SACr003/14.7SACRAMENTO VORTAC115.2017E
MYVr151/26.1MARYSVILLE VOR/DME110.8016E
HNWr248/32.7HANGTOWN VOR/DME115.5017E
ILAr113/36.1WILLIAMS VORTAC114.4018E

Airport Services

Fuel available: 100LL
Parking: tiedowns
Airframe service: MINOR
Powerplant service: MINOR
Bottled oxygen: NONE
Bulk oxygen: NONE

Runway Information

Runway 17/35

Dimensions: 2625 x 42 ft. / 800 x 13 m
Surface: asphalt, in good condition
Weight bearing capacity: 
Single wheel: 12.0
Runway edge lights: low intensity
Runway edge markings: RWY 17 /35 NSTD CNTRLN SPACING & WIDTH.
RUNWAY 17  RUNWAY 35
Latitude: 38-40.715420N38-40.283940N
Longitude: 121-26.707750W121-26.745973W
Elevation: 46.0 ft.43.7 ft.
Traffic pattern: rightleft
Markings: NSTD, in good conditionNSTD, in good condition
Runway end identifier lights: nono
Obstructions: 60 ft. trees, 915 ft. from runway, 225 ft. right of centerline, 11:1 slope to clear20 ft. trees, 384 ft. from runway, 50 ft. left of centerline, 9:1 slope to clear

Airport Ownership and Management from official FAA records

Ownership: Privately-owned
Owner: WILLIAM T MAUSER
931 E STREET
RIO LINDA, CA 95673
Phone 916-991-1725
Manager: WILLIAM T MAUSER
931 E STREET
RIO LINDA, CA 95673
Phone 916-991-1725

Airport Operational Statistics

Aircraft based on the field: 139
Single engine airplanes: 136
Multi engine airplanes: 3
    
Aircraft operations: avg 82/day *
67% local general aviation
33% transient general aviation
* for 12-month period ending 31 December 2016

Additional Remarks

TOUCH AND GO LANDINGS NOT AUTHORIZED.
ULTRALIGHTS NOT AUTHORIZED.
FOR NOISE ABATEMENT RY 17 RIGHT TURN TO HDG 215 DEG AFT TKOF TO AVOID OVERFLIGHT OF SCHOOL.
TREE LINES EAST, WEST & NORTH OF ARPT - UNLIGHTED.
FOR CD CTC NORCAL APCH AT 916-361-6874.

Instrument Procedures

There are no published instrument procedures at L36.

Some nearby airports with instrument procedures:

KMCC - Mc Clellan Airfield (2 nm E)
KSMF - Sacramento International Airport (7 nm W)
KMHR - Sacramento Mather Airport (10 nm SE)
KSAC - Sacramento Executive Airport (10 nm S)
KLHM - Lincoln Regional Airport/Karl Harder Field (15 nm N)
KEDU - University Airport (18 nm SW)
O41 - Watts-Woodland Airport (20 nm W)
 
Loc | Ops | Rwys | IFR | FBO | Links
Com | Nav | Svcs | Stats | Notes

AirNav Hotels Sweepstakes
 
Area around L36 (Rio Linda Airport)
 
Road maps at: MapQuest Bing Google
 
Aerial photo
WARNING: Photo may not be current or correct
Aerial photo of L36 (Rio Linda Airport)
Photo by Morisette
Photo taken 27-May-2006

Do you have a better or more recent aerial photo of Rio Linda Airport that you would like to share? If so, please send us your photo.

 
Sectional chart

 
Airport distance calculator
Flying to Rio Linda Airport? Find the distance to fly.

From to L36

Sunrise and sunset
Times for 22-Apr-2018
 Local
(UTC-7)
 Zulu
(UTC)
Morning civil twilight05:5312:53
Sunrise06:2113:21
Sunset19:4802:48
Evening civil twilight20:1603:16

Current date and time
Zulu (UTC)  22-Apr-2018 22:34:58
Local (UTC-7)  22-Apr-2018 15:34:58
 
METAR
KMCC 
2nm E 
222215Z AUTO 01007KT 10SM CLR 28/11 A2992 RMK AO2
KSMF 
7nm W 
222153Z 30004KT 10SM BKN250 28/08 A2991 RMK AO2 SLP126 T02780083
KSAC 
11nm S 
222153Z 35006KT 10SM CLR 28/13 A2991 RMK AO2 SLP129 T02780128 $
KMHR 
11nm SE 
222150Z 30007KT 10SM SKC 27/11 A2990
KLHM 
15nm N 
222215Z AUTO 32003KT 10SM CLR 27/11 A2990 RMK AO1
KEDU 
18nm SW 
222220Z AUTO 00000KT 10SM CLR 28/09 A2992 RMK AO1
TAF
KSMF 
7nm W 
221720Z 2218/2318 34007KT P6SM FEW250 FM230300 17006KT P6SM FEW250 FM231200 35004KT P6SM SKC
KSAC 
11nm S 
221720Z 2218/2318 33007KT P6SM FEW250 FM230000 27007KT P6SM FEW250 FM231200 34004KT P6SM SKC
KMHR 
11nm SE 
221720Z 2218/2318 32007KT P6SM FEW250 FM230400 VRB04KT P6SM FEW250
NOTAMs
Click for the latest NOTAMs
NOTAMs are issued by the DoD/FAA and will open in a separate window not controlled by AirNav.

 

 
 

FBO, Fuel Providers, and Aircraft Ground Support

  
 Business Name 
 
 Contact 
 
 Services / Description 
 
Fuel Prices
 
Comments
  
Mauser Aviation 916-991-1725
no information available

If you are affiliated with Mauser Aviation and would like to show here your services, contact info, web link, logo, and more, click here
100LL
SS $4.69 
 Updated 20-Apr-2018
 
   write
SS=Self service
Update Fuel Prices
 

Would you like to see your business listed on this page?

 If your business provides an interesting product or service to pilots, flight crews, aircraft, or users of the Rio Linda Airport, you should consider listing it here.  To start the listing process, click on the button below
 
Add a business
 

Other Pages about Rio Linda Airport

Update a link
 
Copyright © AirNav, LLC. All rights reserved. Privacy Policy  Contact